Regional Weather Roundup
Issued by NWS

Home | Current Version | Previous Version | Graphics & Text | Print | Product List | Glossary On
Versions: 1 2 3 4 5 6 7 8 9 10 11 12 13 14 15 16 17 18 19 20 21 22 23 24 25 26 27 28 29 30 31 32 33 34 35 36 37 38 39 40 41 42 43 44 45 46 47 48 49 50
000
ASUS43 KLMK 190802
RWRKY
KENTUCKY REGIONAL WEATHER ROUNDUP
NATIONAL WEATHER SERVICE LOUISVILLE KY
300 AM EST FRI JAN 19 2018

NOTE "FAIR" INDICATES FEW OR NO CLOUDS BELOW 12,000 FEET
WITH NO SIGNIFICANT WEATHER AND/OR OBSTRUCTIONS TO VISIBILITY.

KYZ001>023-026-027-061>063-070>075-190900-
WESTERN AND SOUTH CENTRAL KENTUCKY

CITY           SKY/WX    TMP DP  RH WIND       PRES   REMARKS
PADUCAH        FAIR      22  10  60 SW6       30.26S WCI  14
HENDERSON      FAIR      23  14  68 SW13      30.24F WCI  11
OWENSBORO      FAIR      16  10  77 S5        30.26S WCI   9
HOPKINSVILLE   FAIR      24  12  60 S8        30.27F WCI  14
BOWLING GREEN  FAIR      18  11  74 S6        30.28F WCI  10
GLASGOW        NOT AVBL
$$

KYZ024-025-028>034-038-045-046-053-190900-
NORTH CENTRAL KENTUCKY

CITY           SKY/WX    TMP DP  RH WIND       PRES   REMARKS
LOUISVILLE/SDF FAIR      26  12  55 SW8       30.25R WCI  18
LOUISVILLE/LOU FAIR      23  13  65 S7        30.25S WCI  15
FORT KNOX      FAIR      20  10  66 S6        30.23R WCI  12
$$

KYZ035>037-039>044-047>052-055>060-089>105-190900-
NORTHEAST KENTUCKY

CITY           SKY/WX    TMP DP  RH WIND       PRES   REMARKS
LEXINGTON      FAIR      19  10  68 S10       30.23S WCI   7
COVINGTON      FAIR      22  13  68 S10       30.16S WCI  11
FRANKFORT      FAIR      19   9  65 SW8       30.22S WCI   9
$$

KYZ054-064>069-076>088-106>120-190900-
SOUTHEAST KENTUCKY

CITY           SKY/WX    TMP DP  RH WIND       PRES   REMARKS
JACKSON        FAIR      23  11  60 SW6       30.22F WCI  16
LONDON         FAIR      16  10  77 S3        30.26F
SOMERSET       NOT AVBL
MIDDLESBORO    FAIR      14  12  94 CALM      30.31F
MONTICELLO     FAIR       7   3  84 W10       30.30F WCI  -8
$$





USA.gov is the U.S. government's official web portal to all federal, state and local government web resources and services.